When you browse on this site, cookies collect data to enhance your experience and personalize the content and advertising you see.
Visit our Privacy Policy to learn more. By continuing to use the site, you agree to this use of cookies and data.
  • In Czech Republic
  • List of Countries
  • For 7 days
  • Water Temperature
  • Weather Map
  • Weather Widgets
  • user-avatar
    Login

    Hourly Weather Azevo

    Today, 29 May, Friday

    Time Temperature Precipitation Wind Pressure Humidity
    00:00 +13°C° 0 mm 2 mps 751 mmHg 83%
    01:00 +12°C° 0 mm 2 mps 751 mmHg 85%
    02:00 +12°C° 0 mm 2 mps 751 mmHg 86%
    03:00 +12°C° 0 mm 2 mps 751 mmHg 87%
    04:00 +11°C° 0 mm 1 mps 751 mmHg 85%
    05:00 +13°C° 0 mm 1 mps 751 mmHg 80%
    06:00 +14°C° 0 mm 1 mps 751 mmHg 76%
    07:00 +15°C° 0 mm 1 mps 751 mmHg 71%
    08:00 +18°C° 0 mm 1 mps 751 mmHg 66%
    09:00 +19°C° 0 mm 1 mps 751 mmHg 61%
    10:00 +19°C° 0 mm 2 mps 752 mmHg 56%
    11:00 +20°C° 0 mm 2 mps 751 mmHg 53%
    12:00 +21°C° 0 mm 2 mps 751 mmHg 50%
    13:00 +23°C° 0 mm 2 mps 751 mmHg 47%
    14:00 +23°C° 0 mm 2 mps 751 mmHg 46%
    15:00 +23°C° 0 mm 1 mps 750 mmHg 45%
    16:00 +24°C° 0 mm 1 mps 750 mmHg 44%
    17:00 +23°C° 0 mm 1 mps 750 mmHg 49%
    18:00 +23°C° 0 mm 1 mps 750 mmHg 53%
    19:00 +22°C° 0 mm 1 mps 750 mmHg 58%
    20:00 +20°C° 0 mm 1 mps 750 mmHg 60%
    21:00 +18°C° 0 mm 1 mps 749 mmHg 63%
    22:00 +15°C° 0 mm 1 mps 749 mmHg 66%
    23:00 +14°C° 0 mm 0 mps 749 mmHg 68%

    Tomorrow, 30 May, Saturday

    Time Temperature Precipitation Wind Pressure Humidity
    00:00 +13°C° 0 mm 0 mps 749 mmHg 70%
    01:00 +13°C° 0 mm 0 mps 748 mmHg 72%
    02:00 +12°C° 0 mm 0 mps 749 mmHg 74%
    03:00 +13°C° 0 mm 1 mps 749 mmHg 76%
    04:00 +13°C° 0 mm 1 mps 749 mmHg 78%
    05:00 +14°C° 0 mm 1 mps 748 mmHg 74%
    06:00 +16°C° 0 mm 1 mps 748 mmHg 71%
    07:00 +18°C° 0 mm 1 mps 748 mmHg 68%
    08:00 +20°C° 0 mm 1 mps 748 mmHg 63%
    09:00 +21°C° 0 mm 1 mps 748 mmHg 59%
    10:00 +22°C° 0 mm 1 mps 747 mmHg 55%
    11:00 +23°C° 0 mm 1 mps 747 mmHg 52%
    12:00 +24°C° 0 mm 1 mps 747 mmHg 49%
    13:00 +25°C° 0 mm 1 mps 746 mmHg 46%
    14:00 +25°C° 0 mm 1 mps 746 mmHg 45%
    15:00 +25°C° 0 mm 1 mps 746 mmHg 45%
    16:00 +26°C° 0 mm 1 mps 746 mmHg 45%
    17:00 +25°C° 0 mm 1 mps 745 mmHg 50%
    18:00 +24°C° 0 mm 1 mps 745 mmHg 55%
    19:00 +24°C° 0 mm 1 mps 744 mmHg 60%
    20:00 +22°C° 0 mm 1 mps 744 mmHg 63%
    21:00 +20°C° 0 mm 1 mps 744 mmHg 65%
    22:00 +18°C° 0 mm 1 mps 744 mmHg 68%
    23:00 +17°C° 0 mm 2 mps 743 mmHg 72%

    Day after tomorrow, 31 May, Sunday

    Time Temperature Precipitation Wind Pressure Humidity
    00:00 +16°C° 0 mm 2 mps 743 mmHg 75%
    01:00 +16°C° 0 mm 2 mps 743 mmHg 79%
    02:00 +14°C° 0 mm 3 mps 742 mmHg 80%
    03:00 +14°C° 0 mm 3 mps 742 mmHg 82%
    04:00 +14°C° 0 mm 4 mps 741 mmHg 83%
    05:00 +14°C° 0 mm 3 mps 741 mmHg 84%
    06:00 +14°C° 0 mm 3 mps 740 mmHg 84%
    07:00 +16°C° 0 mm 3 mps 740 mmHg 85%
    08:00 +14°C° 0.1 mm 4 mps 740 mmHg 85%
    09:00 +14°C° 0.1 mm 6 mps 739 mmHg 85%
    10:00 +14°C° 0.1 mm 7 mps 739 mmHg 85%
    11:00 +12°C° 0.7 mm 7 mps 738 mmHg 87%
    12:00 +11°C° 0.7 mm 7 mps 738 mmHg 88%
    13:00 +11°C° 0.7 mm 7 mps 738 mmHg 90%
    14:00 +10°C° 0.8 mm 7 mps 738 mmHg 91%
    15:00 +10°C° 0.8 mm 6 mps 738 mmHg 92%
    16:00 +9°C° 0.8 mm 6 mps 738 mmHg 93%
    17:00 +9°C° 0.5 mm 5 mps 738 mmHg 94%
    18:00 +10°C° 0.5 mm 4 mps 738 mmHg 94%
    19:00 +10°C° 0.5 mm 4 mps 738 mmHg 95%
    20:00 +10°C° 0.7 mm 3 mps 738 mmHg 95%
    21:00 +10°C° 0.7 mm 3 mps 738 mmHg 95%
    22:00 +10°C° 0.7 mm 2 mps 738 mmHg 95%
    23:00 +10°C° 0.2 mm 2 mps 738 mmHg 96%

    1 June, Monday

    Time Temperature Precipitation Wind Pressure Humidity
    00:00 +10°C° 0.2 mm 2 mps 738 mmHg 96%
    01:00 +10°C° 0.2 mm 2 mps 738 mmHg 96%
    02:00 +10°C° 0 mm 2 mps 737 mmHg 96%
    03:00 +10°C° 0 mm 2 mps 737 mmHg 96%
    04:00 +10°C° 0 mm 2 mps 737 mmHg 97%
    05:00 +10°C° 0.1 mm 2 mps 737 mmHg 97%
    06:00 +10°C° 0.1 mm 2 mps 736 mmHg 96%
    07:00 +10°C° 0.1 mm 2 mps 736 mmHg 96%
    08:00 +12°C° 0.3 mm 2 mps 736 mmHg 95%
    09:00 +12°C° 0.3 mm 3 mps 736 mmHg 93%
    10:00 +13°C° 0.3 mm 3 mps 737 mmHg 92%
    11:00 +14°C° 0.9 mm 3 mps 737 mmHg 88%
    12:00 +15°C° 0.9 mm 4 mps 737 mmHg 84%
    13:00 +17°C° 0.9 mm 4 mps 737 mmHg 80%
    14:00 +17°C° 0.9 mm 4 mps 737 mmHg 79%
    15:00 +16°C° 0.9 mm 5 mps 737 mmHg 78%
    16:00 +16°C° 0.9 mm 5 mps 737 mmHg 77%
    17:00 +15°C° 0.1 mm 5 mps 737 mmHg 78%
    18:00 +14°C° 0.1 mm 4 mps 737 mmHg 79%
    19:00 +13°C° 0.1 mm 4 mps 737 mmHg 80%
    20:00 +12°C° 0 mm 4 mps 737 mmHg 82%
    21:00 +11°C° 0 mm 4 mps 738 mmHg 84%
    22:00 +10°C° 0 mm 4 mps 738 mmHg 86%
    23:00 +8°C° 0 mm 4 mps 738 mmHg 87%

    2 June, Tuesday

    Time Temperature Precipitation Wind Pressure Humidity
    00:00 +8°C° 0 mm 4 mps 738 mmHg 88%
    01:00 +7°C° 0 mm 4 mps 738 mmHg 90%
    02:00 +7°C° 0 mm 5 mps 738 mmHg 88%
    03:00 +8°C° 0 mm 5 mps 738 mmHg 86%
    04:00 +8°C° 0 mm 5 mps 738 mmHg 84%
    05:00 +8°C° 0 mm 5 mps 738 mmHg 86%
    06:00 +8°C° 0 mm 5 mps 739 mmHg 87%
    07:00 +8°C° 0 mm 5 mps 739 mmHg 88%
    08:00 +9°C° 0 mm 5 mps 739 mmHg 87%
    09:00 +9°C° 0 mm 5 mps 740 mmHg 86%
    10:00 +9°C° 0 mm 5 mps 741 mmHg 84%
    11:00 +9°C° 0 mm 5 mps 741 mmHg 83%
    12:00 +10°C° 0 mm 5 mps 742 mmHg 81%
    13:00 +10°C° 0 mm 5 mps 742 mmHg 79%
    14:00 +10°C° 0.1 mm 5 mps 742 mmHg 77%
    15:00 +12°C° 0.1 mm 4 mps 743 mmHg 75%
    16:00 +12°C° 0.1 mm 4 mps 743 mmHg 73%
    17:00 +12°C° 0 mm 4 mps 743 mmHg 74%
    18:00 +11°C° 0 mm 4 mps 743 mmHg 74%
    19:00 +11°C° 0 mm 3 mps 743 mmHg 75%
    20:00 +10°C° 0 mm 3 mps 743 mmHg 79%
    21:00 +8°C° 0 mm 2 mps 743 mmHg 84%
    22:00 +8°C° 0 mm 1 mps 743 mmHg 88%
    23:00 +8°C° 0 mm 1 mps 743 mmHg 88%

    3 June, Wednesday

    Time Temperature Precipitation Wind Pressure Humidity
    00:00 +8°C° 0 mm 1 mps 743 mmHg 89%
    01:00 +8°C° 0 mm 1 mps 742 mmHg 89%
    02:00 +7°C° 0 mm 1 mps 742 mmHg 91%
    03:00 +6°C° 0 mm 2 mps 742 mmHg 92%
    04:00 +5°C° 0 mm 2 mps 742 mmHg 94%
    05:00 +6°C° 0 mm 2 mps 742 mmHg 91%
    06:00 +7°C° 0 mm 2 mps 742 mmHg 89%
    07:00 +8°C° 0 mm 2 mps 742 mmHg 86%
    08:00 +9°C° 0 mm 3 mps 742 mmHg 83%
    09:00 +10°C° 0 mm 3 mps 742 mmHg 80%
    10:00 +12°C° 0 mm 4 mps 742 mmHg 77%
    11:00 +12°C° 0 mm 4 mps 742 mmHg 75%
    12:00 +13°C° 0 mm 3 mps 742 mmHg 73%
    13:00 +13°C° 0 mm 3 mps 742 mmHg 70%
    14:00 +13°C° 0 mm 3 mps 742 mmHg 70%
    15:00 +14°C° 0 mm 2 mps 742 mmHg 70%
    16:00 +15°C° 0 mm 2 mps 742 mmHg 69%
    17:00 +15°C° 0 mm 1 mps 742 mmHg 71%
    18:00 +14°C° 0 mm 1 mps 742 mmHg 72%
    19:00 +14°C° 0 mm 1 mps 742 mmHg 73%
    20:00 +13°C° 0 mm 1 mps 742 mmHg 76%
    21:00 +11°C° 0 mm 0 mps 742 mmHg 78%
    22:00 +9°C° 0 mm 0 mps 742 mmHg 81%
    23:00 +10°C° 0 mm 0 mps 742 mmHg 80%
    Show more